TimeEST,TemperatureF,Dew PointF,Humidity,Sea Level PressureIn,VisibilityMPH,Wind Direction,Wind SpeedMPH,Gust SpeedMPH,PrecipitationIn,Events,Conditions,WindDirDegrees,DateUTC
12:15 AM,35.2,30.2,82,30.22,10.0,North,4.6,-,N/A,,Clear,10,2013-12-24 05:15:00
12:35 AM,37.6,29.5,73,30.22,10.0,North,3.5,-,N/A,,Clear,350,2013-12-24 05:35:00
12:55 AM,35.1,30.0,82,30.22,10.0,North,3.5,-,N/A,,Scattered Clouds,360,2013-12-24 05:55:00
1:15 AM,35.4,30.2,81,30.22,10.0,NW,3.5,-,N/A,,Clear,320,2013-12-24 06:15:00
1:35 AM,32.0,30.2,93,30.22,10.0,Calm,Calm,-,N/A,,Scattered Clouds,0,2013-12-24 06:35:00
1:55 AM,32.4,31.8,98,30.22,10.0,Calm,Calm,-,N/A,,Mostly Cloudy,0,2013-12-24 06:55:00
2:15 AM,34.0,32.7,95,30.22,10.0,Calm,Calm,-,N/A,,Overcast,0,2013-12-24 07:15:00
2:35 AM,31.6,30.7,96,30.22,10.0,Calm,Calm,-,N/A,,Scattered Clouds,0,2013-12-24 07:35:00
2:55 AM,31.5,30.9,98,30.22,10.0,NNW,3.5,-,N/A,,Clear,330,2013-12-24 07:55:00
3:15 AM,34.2,28.8,81,30.22,10.0,North,4.6,-,N/A,,Clear,350,2013-12-24 08:15:00
3:35 AM,33.1,28.9,85,30.22,10.0,Calm,Calm,-,N/A,,Clear,0,2013-12-24 08:35:00
3:55 AM,30.6,28.8,93,30.23,10.0,Calm,Calm,-,N/A,,Clear,0,2013-12-24 08:55:00
4:15 AM,29.1,27.9,95,30.23,10.0,Calm,Calm,-,N/A,,Clear,0,2013-12-24 09:15:00
4:35 AM,28.9,28.4,98,30.23,10.0,Calm,Calm,-,N/A,,Clear,0,2013-12-24 09:35:00
4:55 AM,29.1,28.9,99,30.23,10.0,West,3.5,-,N/A,,Clear,270,2013-12-24 09:55:00
5:15 AM,28.6,27.7,96,30.24,10.0,Calm,Calm,-,N/A,,Clear,0,2013-12-24 10:15:00
5:35 AM,27.3,26.6,97,30.23,10.0,Calm,Calm,-,N/A,,Clear,0,2013-12-24 10:35:00
5:55 AM,27.7,27.3,99,30.24,10.0,Calm,Calm,-,N/A,,Clear,0,2013-12-24 10:55:00
6:15 AM,27.5,27.3,99,30.25,10.0,Calm,Calm,-,N/A,,Clear,0,2013-12-24 11:15:00
6:35 AM,26.6,26.2,99,30.26,10.0,Calm,Calm,-,N/A,,Clear,0,2013-12-24 11:35:00
6:55 AM,27.0,26.6,99,30.27,10.0,Calm,Calm,-,N/A,,Clear,0,2013-12-24 11:55:00
7:15 AM,26.6,26.2,99,30.27,10.0,Calm,Calm,-,N/A,,Clear,0,2013-12-24 12:15:00
7:35 AM,25.9,25.5,99,30.28,10.0,Calm,Calm,-,N/A,,Clear,0,2013-12-24 12:35:00
7:55 AM,25.9,25.7,99,30.29,10.0,Calm,Calm,-,N/A,,Clear,0,2013-12-24 12:55:00
8:15 AM,28.2,27.9,99,30.29,10.0,Calm,Calm,-,N/A,,Clear,0,2013-12-24 13:15:00
8:35 AM,31.5,31.1,99,30.30,10.0,Calm,Calm,-,N/A,,Clear,0,2013-12-24 13:35:00
8:55 AM,34.0,30.6,87,30.31,10.0,Calm,Calm,-,N/A,,Clear,0,2013-12-24 13:55:00
9:15 AM,35.1,28.6,77,30.31,10.0,Calm,Calm,-,N/A,,Clear,0,2013-12-24 14:15:00
9:35 AM,36.9,27.5,69,30.32,10.0,Calm,Calm,-,N/A,,Clear,0,2013-12-24 14:35:00
9:55 AM,37.6,28.0,68,30.33,10.0,WSW,3.5,-,N/A,,Clear,240,2013-12-24 14:55:00
10:15 AM,38.7,28.0,66,30.33,10.0,WNW,3.5,-,N/A,,Clear,300,2013-12-24 15:15:00
10:35 AM,39.9,28.4,63,30.34,10.0,West,3.5,-,N/A,,Clear,280,2013-12-24 15:35:00
10:55 AM,41.4,26.6,56,30.34,10.0,NW,5.8,-,N/A,,Mostly Cloudy,320,2013-12-24 15:55:00
11:15 AM,39.0,22.3,51,30.34,10.0,NNW,10.4,18.4,N/A,,Mostly Cloudy,340,2013-12-24 16:15:00
11:35 AM,39.4,20.8,47,30.34,10.0,NNW,11.5,17.3,N/A,,Mostly Cloudy,330,2013-12-24 16:35:00
11:55 AM,40.6,21.2,46,30.34,10.0,WNW,15.0,20.7,N/A,,Scattered Clouds,300,2013-12-24 16:55:00
12:15 PM,40.6,20.8,45,30.34,10.0,NW,13.8,18.4,N/A,,Scattered Clouds,320,2013-12-24 17:15:00
12:35 PM,40.5,20.8,46,30.34,10.0,NW,15.0,18.4,N/A,,Mostly Cloudy,320,2013-12-24 17:35:00
12:55 PM,38.7,19.2,46,30.34,10.0,NW,10.4,-,N/A,,Scattered Clouds,320,2013-12-24 17:55:00
1:15 PM,37.8,19.4,48,30.34,10.0,NNW,8.1,16.1,N/A,,Clear,340,2013-12-24 18:15:00
1:35 PM,39.4,19.8,45,30.34,10.0,NNW,10.4,-,N/A,,Scattered Clouds,340,2013-12-24 18:35:00
1:55 PM,38.5,18.3,44,30.34,10.0,NNW,10.4,-,N/A,,Scattered Clouds,340,2013-12-24 18:55:00
2:15 PM,39.0,17.2,41,30.34,10.0,NNW,13.8,17.3,N/A,,Clear,330,2013-12-24 19:15:00
2:35 PM,39.0,17.2,41,30.34,10.0,WNW,13.8,18.4,N/A,,Clear,300,2013-12-24 19:35:00
2:55 PM,39.6,17.6,41,30.34,10.0,NW,10.4,-,N/A,,Clear,320,2013-12-24 19:55:00
3:15 PM,39.2,17.8,42,30.34,10.0,NW,9.2,-,N/A,,Clear,320,2013-12-24 20:15:00
3:35 PM,38.7,14.5,37,30.35,10.0,NW,12.7,19.6,N/A,,Clear,320,2013-12-24 20:35:00
3:55 PM,38.3,15.4,39,30.36,10.0,NNW,9.2,-,N/A,,Clear,330,2013-12-24 20:55:00
4:15 PM,37.6,14.2,38,30.36,10.0,NNW,13.8,18.4,N/A,,Clear,330,2013-12-24 21:15:00
4:35 PM,36.5,15.1,42,30.37,10.0,NNW,8.1,-,N/A,,Clear,330,2013-12-24 21:35:00
4:55 PM,35.2,14.5,43,30.38,10.0,NW,10.4,-,N/A,,Clear,320,2013-12-24 21:55:00
5:15 PM,34.0,15.4,47,30.39,10.0,NNW,8.1,-,N/A,,Clear,340,2013-12-24 22:15:00
5:35 PM,33.1,14.9,47,30.40,10.0,NNW,6.9,-,N/A,,Clear,340,2013-12-24 22:35:00
5:55 PM,32.5,15.4,49,30.41,10.0,NW,9.2,17.3,N/A,,Clear,320,2013-12-24 22:55:00
6:15 PM,32.0,15.4,51,30.41,10.0,North,4.6,-,N/A,,Clear,350,2013-12-24 23:15:00
6:35 PM,31.5,15.3,51,30.41,10.0,Calm,Calm,-,N/A,,Clear,0,2013-12-24 23:35:00
6:55 PM,30.2,16.0,56,30.42,10.0,NNW,3.5,-,N/A,,Clear,340,2013-12-24 23:55:00
7:15 PM,30.0,15.6,55,30.42,10.0,NNW,4.6,-,N/A,,Clear,330,2013-12-25 00:15:00
7:35 PM,29.1,17.2,61,30.43,10.0,Calm,Calm,-,N/A,,Clear,0,2013-12-25 00:35:00
7:55 PM,27.1,19.0,72,30.43,10.0,Calm,Calm,-,N/A,,Clear,0,2013-12-25 00:55:00
8:15 PM,26.4,21.4,81,30.43,10.0,Calm,Calm,-,N/A,,Clear,0,2013-12-25 01:15:00
8:35 PM,25.7,21.2,83,30.44,10.0,Calm,Calm,-,N/A,,Clear,0,2013-12-25 01:35:00
8:55 PM,24.6,20.1,83,30.44,10.0,Calm,Calm,-,N/A,,Clear,0,2013-12-25 01:55:00
9:15 PM,24.4,20.3,84,30.44,10.0,Calm,Calm,-,N/A,,Clear,0,2013-12-25 02:15:00
9:35 PM,23.7,21.4,91,30.44,10.0,Calm,Calm,-,N/A,,Clear,0,2013-12-25 02:35:00
9:55 PM,23.4,19.6,85,30.44,10.0,Calm,Calm,-,N/A,,Clear,0,2013-12-25 02:55:00
10:15 PM,23.0,19.4,86,30.45,10.0,Calm,Calm,-,N/A,,Clear,0,2013-12-25 03:15:00
10:35 PM,22.5,19.4,88,30.45,10.0,Calm,Calm,-,N/A,,Clear,0,2013-12-25 03:35:00
10:55 PM,22.5,19.8,89,30.45,10.0,Calm,Calm,-,N/A,,Clear,0,2013-12-25 03:55:00
11:15 PM,21.6,19.4,91,30.45,10.0,Calm,Calm,-,N/A,,Clear,0,2013-12-25 04:15:00
11:35 PM,21.2,19.2,92,30.46,10.0,ENE,3.5,-,N/A,,Clear,70,2013-12-25 04:35:00
11:55 PM,22.8,18.5,83,30.46,10.0,East,3.5,-,N/A,,Clear,80,2013-12-25 04:55:00